Torna al catalogo

QIANFAN-124

AttivoComunicazioniPO
NORAD 68651·PAYLOAD·🇨🇳 China

Lanciato Apr 7, 2026 da Wenchang Space Launch Site

Loading…

Prossimi Passaggi (prossime 24 ore)

TLE

AggiornatoSource: Space-Track

Epoca: Sep 14, 2026, 21:04 UTC

1 68651U 26075R   26257.87779784  .00000062  00000-0  77189-4 0  9999
2 68651  88.9872 311.8379 0002281  87.8442 272.2970 13.51026521 21927

Traccia QIANFAN-124 in tempo reale con AllMySat

Download on the App Store